QPF
0.00 0.00 0.00 0.00 0.00 0.00 0.00 0.00 0.00 0.00 0.00 0.01 0.01 0.01 0.00 0.00 0.00 0.00 0.00 0.01 0.01 0.01 0.02 0.03 0.04 0.06 0.07 0.07 0.06 0.08 0.10 0.09 0.08 0.07 0.05 0.04 0.04 0.04 0.04 0.04 0.05 0.05 0.06 0.06
0.00 0.00 0.00 0.00 0.00 0.00 0.00 0.00 0.00 0.00 0.01 0.01 0.01 0.01 0.01 0.00 0.00 0.00 0.00 0.00 0.01 0.02 0.03 0.05 0.07 0.08 0.08 0.07 0.08 0.09 0.10 0.12 0.10 0.07 0.08 0.07 0.06 0.05 0.04 0.04 0.04 0.06 0.08 0.07
0.00 0.00 0.00 0.00 0.00 0.00 0.00 0.00 0.00 0.00 0.01 0.01 0.01 0.01 0.01 0.01 0.01 0.00 0.01 0.01 0.01 0.02 0.04 0.05 0.07 0.07 0.07 0.06 0.07 0.08 0.08 0.11 0.11 0.09 0.09 0.10 0.09 0.07 0.04 0.04 0.05 0.05 0.06 0.06
0.00 0.00 0.00 0.00 0.00 0.00 0.00 0.00 0.00 0.00 0.00 0.01 0.01 0.01 0.00 0.01 0.01 0.01 0.02 0.02 0.01 0.01 0.02 0.03 0.04 0.05 0.06 0.06 0.08 0.10 0.11 0.11 0.13 0.16 0.12 0.11 0.09 0.07 0.06 0.05 0.05 0.05 0.05 0.06
0.00 0.00 0.00 0.00 0.01 0.01 0.00 0.00 0.00 0.00 0.00 0.00 0.01 0.01 0.00 0.00 0.01 0.02 0.02 0.02 0.02 0.02 0.01 0.02 0.03 0.04 0.06 0.06 0.05 0.07 0.09 0.09 0.09 0.10 0.08 0.08 0.07 0.06 0.07 0.06 0.04 0.05 0.05 0.06
0.00 0.00 0.00 0.00 0.00 0.00 0.00 0.00 0.00 0.01 0.01 0.01 0.01 0.01 0.00 0.00 0.00 0.01 0.01 0.01 0.02 0.01 0.01 0.02 0.03 0.04 0.05 0.04 0.03 0.04 0.06 0.05 0.05 0.08 0.07 0.06 0.05 0.05 0.06 0.07 0.05 0.03 0.04 0.04
0.00 0.00 0.00 0.00 0.00 0.00 0.00 0.00 0.00 0.01 0.01 0.01 0.00 0.00 0.01 0.00 0.01 0.01 0.01 0.01 0.02 0.01 0.01 0.02 0.03 0.03 0.04 0.04 0.05 0.05 0.05 0.05 0.05 0.09 0.09 0.07 0.06 0.06 0.05 0.06 0.06 0.05 0.05 0.05
0.00 0.00 0.00 0.00 0.00 0.00 0.00 0.00 0.00 0.00 0.01 0.01 0.01 0.01 0.01 0.01 0.01 0.01 0.01 0.01 0.02 0.02 0.02 0.03 0.04 0.03 0.04 0.04 0.05 0.06 0.05 0.04 0.05 0.09 0.10 0.08 0.07 0.06 0.05 0.05 0.07 0.05 0.05 0.05
0.00 0.00 0.00 0.00 0.00 0.00 0.00 0.00 0.00 0.01 0.01 0.01 0.01 0.01 0.01 0.02 0.03 0.03 0.03 0.02 0.02 0.03 0.02 0.03 0.04 0.04 0.04 0.05 0.08 0.08 0.07 0.07 0.08 0.09 0.10 0.10 0.07 0.06 0.06 0.07 0.07 0.06 0.05 0.05
0.00 0.00 0.00 0.00 0.00 0.00 0.00 0.00 0.00 0.00 0.00 0.00 0.00 0.00 0.01 0.01 0.02 0.03 0.04 0.04 0.03 0.03 0.03 0.03 0.04 0.04 0.05 0.06 0.09 0.12 0.09 0.08 0.09 0.10 0.10 0.14 0.11 0.08 0.06 0.08 0.11 0.09 0.07 0.07
0.00 0.00 0.00 0.00 0.00 0.00 0.00 0.00 0.00 0.00 0.00 0.00 0.00 0.00 0.00 0.01 0.01 0.02 0.02 0.03 0.04 0.04 0.05 0.05 0.05 0.06 0.07 0.06 0.08 0.09 0.08 0.08 0.09 0.09 0.08 0.08 0.08 0.08 0.07 0.07 0.10 0.12 0.10 0.07
0.00 0.00 0.01 0.00 0.00 0.00 0.00 0.00 0.00 0.01 0.01 0.01 0.01 0.01 0.00 0.01 0.01 0.01 0.01 0.02 0.03 0.04 0.04 0.06 0.08 0.08 0.07 0.07 0.08 0.07 0.07 0.08 0.08 0.09 0.09 0.07 0.07 0.07 0.06 0.05 0.07 0.10 0.09 0.06
0.00 0.00 0.01 0.01 0.01 0.00 0.00 0.00 0.01 0.01 0.02 0.02 0.02 0.01 0.00 0.01 0.01 0.01 0.01 0.02 0.04 0.04 0.05 0.08 0.08 0.08 0.06 0.07 0.09 0.09 0.07 0.07 0.07 0.07 0.07 0.06 0.05 0.04 0.04 0.03 0.03 0.04 0.04 0.03
0.01 0.01 0.01 0.01 0.01 0.01 0.01 0.00 0.01 0.02 0.03 0.02 0.02 0.01 0.01 0.01 0.01 0.01 0.02 0.04 0.04 0.04 0.05 0.08 0.08 0.07 0.06 0.06 0.08 0.10 0.08 0.07 0.07 0.06 0.06 0.05 0.04 0.03 0.03 0.02 0.02 0.02 0.02 0.02
0.01 0.00 0.00 0.01 0.01 0.01 0.01 0.01 0.01 0.01 0.01 0.02 0.02 0.02 0.01 0.01 0.01 0.02 0.03 0.03 0.03 0.04 0.05 0.06 0.08 0.07 0.06 0.07 0.09 0.06 0.06 0.07 0.08 0.07 0.05 0.04 0.05 0.04 0.03 0.02 0.02 0.02 0.02 0.02
0.01 0.00 0.00 0.01 0.01 0.01 0.01 0.01 0.01 0.02 0.02 0.02 0.02 0.01 0.01 0.02 0.02 0.02 0.02 0.02 0.03 0.04 0.03 0.04 0.05 0.06 0.05 0.05 0.05 0.03 0.03 0.04 0.07 0.07 0.06 0.05 0.05 0.04 0.03 0.03 0.02 0.02 0.03 0.03
0.01 0.01 0.01 0.01 0.01 0.01 0.02 0.03 0.03 0.03 0.02 0.02 0.01 0.01 0.02 0.02 0.01 0.01 0.02 0.03 0.03 0.03 0.02 0.02 0.03 0.04 0.04 0.04 0.04 0.04 0.04 0.04 0.06 0.07 0.06 0.05 0.04 0.04 0.04 0.04 0.03 0.02 0.02 0.03
0.01 0.01 0.01 0.01 0.02 0.02 0.02 0.02 0.02 0.02 0.02 0.02 0.01 0.01 0.01 0.01 0.01 0.01 0.02 0.02 0.02 0.02 0.02 0.01 0.02 0.03 0.03 0.03 0.04 0.06 0.08 0.07 0.06 0.06 0.05 0.04 0.04 0.03 0.04 0.04 0.04 0.03 0.04 0.06
0.01 0.01 0.02 0.01 0.02 0.02 0.02 0.02 0.02 0.02 0.03 0.02 0.02 0.02 0.02 0.02 0.02 0.01 0.01 0.01 0.02 0.02 0.02 0.02 0.03 0.03 0.03 0.03 0.05 0.05 0.05 0.05 0.05 0.04 0.03 0.03 0.02 0.02 0.01 0.03 0.03 0.03 0.03 0.04
0.01 0.01 0.02 0.02 0.02 0.03 0.03 0.03 0.02 0.02 0.03 0.03 0.04 0.03 0.02 0.02 0.03 0.03 0.02 0.02 0.02 0.02 0.02 0.02 0.03 0.03 0.02 0.02 0.04 0.05 0.04 0.04 0.03 0.03 0.03 0.02 0.02 0.01 0.01 0.03 0.03 0.04 0.04 0.03
0.01 0.01 0.01 0.01 0.02 0.03 0.03 0.04 0.04 0.05 0.05 0.06 0.05 0.03 0.03 0.03 0.02 0.02 0.02 0.02 0.02 0.02 0.02 0.02 0.03 0.02 0.02 0.02 0.02 0.03 0.02 0.03 0.03 0.03 0.02 0.02 0.01 0.02 0.02 0.03 0.04 0.06 0.05 0.05
0.02 0.02 0.02 0.01 0.02 0.01 0.02 0.03 0.05 0.07 0.07 0.09 0.06 0.04 0.04 0.02 0.01 0.01 0.02 0.03 0.03 0.02 0.02 0.02 0.02 0.02 0.01 0.01 0.01 0.01 0.01 0.01 0.01 0.01 0.01 0.01 0.01 0.01 0.02 0.03 0.05 0.07 0.07 0.06
0.03 0.04 0.03 0.03 0.03 0.02 0.03 0.04 0.06 0.10 0.12 0.10 0.09 0.05 0.04 0.02 0.01 0.01 0.02 0.02 0.02 0.03 0.03 0.03 0.03 0.02 0.01 0.01 0.01 0.01 0.00 0.01 0.01 0.02 0.02 0.02 0.01 0.01 0.02 0.03 0.04 0.07 0.08 0.07
0.03 0.03 0.03 0.04 0.04 0.04 0.03 0.04 0.05 0.07 0.09 0.08 0.07 0.04 0.03 0.02 0.02 0.02 0.02 0.02 0.02 0.03 0.03 0.03 0.03 0.03 0.02 0.02 0.02 0.02 0.02 0.01 0.01 0.02 0.02 0.02 0.03 0.03 0.03 0.04 0.04 0.06 0.06 0.06
0.02 0.03 0.04 0.04 0.04 0.04 0.04 0.03 0.03 0.04 0.04 0.06 0.05 0.04 0.03 0.03 0.03 0.03 0.03 0.04 0.04 0.04 0.04 0.04 0.04 0.04 0.04 0.03 0.02 0.03 0.03 0.03 0.03 0.03 0.03 0.05 0.08 0.07 0.06 0.06 0.07 0.09 0.08 0.07
0.03 0.04 0.04 0.04 0.04 0.03 0.03 0.02 0.02 0.02 0.03 0.04 0.04 0.03 0.03 0.03 0.04 0.04 0.04 0.05 0.05 0.04 0.04 0.03 0.04 0.04 0.05 0.04 0.04 0.03 0.03 0.03 0.02 0.02 0.02 0.03 0.04 0.03 0.03 0.03 0.04 0.05 0.04 0.04
MSLP
1008.17 1008.85 1009.30 1009.52 1009.57 1009.52 1009.45 1009.40 1009.39 1009.43 1009.45 1009.43 1009.30 1009.06 1008.73 1008.34 1007.99 1007.74 1007.65 1007.77 1008.08 1008.55 1009.10 1009.68 1010.20 1010.63 1010.98 1011.25 1011.50 1011.78 1012.14 1012.58 1013.12 1013.70 1014.30 1014.85 1015.31 1015.67 1015.93 1016.11 1016.26 1016.41 1016.58 1016.78
1008.42 1008.95 1009.26 1009.38 1009.38 1009.33 1009.31 1009.36 1009.47 1009.61 1009.72 1009.72 1009.58 1009.27 1008.83 1008.33 1007.85 1007.50 1007.33 1007.39 1007.67 1008.13 1008.68 1009.26 1009.78 1010.21 1010.55 1010.82 1011.08 1011.39 1011.79 1012.30 1012.91 1013.57 1014.24 1014.85 1015.36 1015.74 1016.01 1016.18 1016.32 1016.46 1016.62 1016.83
1008.45 1008.82 1009.00 1009.04 1009.02 1009.02 1009.11 1009.30 1009.56 1009.83 1010.03 1010.06 1009.89 1009.50 1008.94 1008.29 1007.66 1007.16 1006.88 1006.85 1007.07 1007.50 1008.04 1008.62 1009.15 1009.60 1009.95 1010.26 1010.56 1010.91 1011.37 1011.95 1012.63 1013.36 1014.09 1014.75 1015.29 1015.70 1015.97 1016.16 1016.29 1016.43 1016.60 1016.81
1008.26 1008.49 1008.56 1008.55 1008.56 1008.66 1008.89 1009.26 1009.70 1010.12 1010.41 1010.48 1010.28 1009.80 1009.09 1008.27 1007.46 1006.79 1006.36 1006.21 1006.35 1006.72 1007.24 1007.81 1008.36 1008.84 1009.24 1009.59 1009.95 1010.37 1010.90 1011.54 1012.28 1013.07 1013.85 1014.54 1015.11 1015.54 1015.83 1016.03 1016.18 1016.33 1016.51 1016.74
1007.94 1008.03 1008.03 1008.01 1008.08 1008.31 1008.71 1009.27 1009.90 1010.47 1010.86 1010.96 1010.72 1010.15 1009.30 1008.30 1007.30 1006.45 1005.85 1005.56 1005.59 1005.88 1006.36 1006.92 1007.48 1008.00 1008.45 1008.87 1009.30 1009.79 1010.38 1011.09 1011.88 1012.71 1013.52 1014.25 1014.84 1015.29 1015.60 1015.82 1015.99 1016.17 1016.38 1016.64
1007.59 1007.58 1007.53 1007.53 1007.68 1008.05 1008.62 1009.36 1010.16 1010.86 1011.33 1011.46 1011.19 1010.52 1009.54 1008.38 1007.20 1006.17 1005.40 1004.96 1004.87 1005.07 1005.49 1006.03 1006.60 1007.15 1007.66 1008.15 1008.65 1009.21 1009.87 1010.62 1011.46 1012.32 1013.15 1013.89 1014.50 1014.97 1015.31 1015.56 1015.77 1015.98 1016.23 1016.53
1007.33 1007.25 1007.18 1007.21 1007.44 1007.92 1008.64 1009.52 1010.44 1011.24 1011.77 1011.91 1011.60 1010.86 1009.77 1008.48 1007.16 1005.97 1005.05 1004.47 1004.26 1004.36 1004.71 1005.22 1005.78 1006.35 1006.90 1007.45 1008.02 1008.64 1009.36 1010.16 1011.02 1011.90 1012.75 1013.50 1014.13 1014.63 1015.00 1015.29 1015.54 1015.80 1016.09 1016.41
1007.23 1007.11 1007.04 1007.10 1007.40 1007.95 1008.75 1009.71 1010.69 1011.52 1012.07 1012.19 1011.85 1011.06 1009.91 1008.53 1007.12 1005.83 1004.80 1004.11 1003.78 1003.79 1004.06 1004.51 1005.05 1005.62 1006.20 1006.79 1007.41 1008.10 1008.86 1009.70 1010.59 1011.49 1012.34 1013.11 1013.76 1014.28 1014.69 1015.02 1015.33 1015.63 1015.96 1016.31
1007.30 1007.18 1007.12 1007.21 1007.52 1008.10 1008.91 1009.86 1010.83 1011.63 1012.14 1012.23 1011.86 1011.05 1009.87 1008.48 1007.03 1005.70 1004.61 1003.85 1003.43 1003.35 1003.54 1003.91 1004.41 1004.96 1005.54 1006.16 1006.82 1007.55 1008.35 1009.23 1010.15 1011.07 1011.94 1012.73 1013.41 1013.96 1014.41 1014.79 1015.14 1015.48 1015.85 1016.22
1007.51 1007.41 1007.36 1007.46 1007.76 1008.30 1009.05 1009.92 1010.78 1011.50 1011.93 1011.96 1011.57 1010.76 1009.61 1008.26 1006.85 1005.54 1004.44 1003.65 1003.18 1003.01 1003.11 1003.41 1003.83 1004.35 1004.92 1005.54 1006.23 1006.99 1007.84 1008.75 1009.70 1010.65 1011.55 1012.37 1013.07 1013.67 1014.16 1014.59 1014.98 1015.36 1015.75 1016.14
1007.74 1007.68 1007.66 1007.75 1008.01 1008.46 1009.08 1009.80 1010.51 1011.08 1011.39 1011.36 1010.95 1010.17 1009.10 1007.84 1006.53 1005.30 1004.26 1003.47 1002.97 1002.74 1002.76 1002.96 1003.31 1003.76 1004.30 1004.92 1005.62 1006.41 1007.30 1008.25 1009.23 1010.22 1011.15 1012.01 1012.75 1013.39 1013.93 1014.40 1014.82 1015.24 1015.64 1016.04
1007.87 1007.87 1007.88 1007.95 1008.15 1008.49 1008.95 1009.49 1010.00 1010.39 1010.57 1010.47 1010.05 1009.33 1008.36 1007.24 1006.07 1004.97 1004.02 1003.27 1002.76 1002.49 1002.43 1002.55 1002.82 1003.20 1003.70 1004.30 1005.01 1005.83 1006.74 1007.74 1008.76 1009.79 1010.76 1011.66 1012.44 1013.12 1013.70 1014.21 1014.67 1015.10 1015.52 1015.93
1007.82 1007.88 1007.91 1007.98 1008.11 1008.34 1008.63 1008.97 1009.29 1009.50 1009.55 1009.38 1008.96 1008.31 1007.47 1006.50 1005.51 1004.55 1003.71 1003.04 1002.54 1002.24 1002.12 1002.16 1002.35 1002.67 1003.12 1003.70 1004.42 1005.26 1006.21 1007.24 1008.30 1009.36 1010.38 1011.30 1012.13 1012.85 1013.46 1014.00 1014.49 1014.95 1015.38 1015.78
1007.53 1007.65 1007.72 1007.79 1007.87 1007.99 1008.14 1008.31 1008.44 1008.50 1008.42 1008.19 1007.78 1007.20 1006.49 1005.69 1004.86 1004.07 1003.35 1002.75 1002.29 1001.97 1001.81 1001.79 1001.92 1002.19 1002.60 1003.17 1003.89 1004.75 1005.72 1006.78 1007.88 1008.97 1010.01 1010.96 1011.81 1012.56 1013.20 1013.77 1014.29 1014.76 1015.20 1015.61
1007.05 1007.21 1007.32 1007.39 1007.45 1007.49 1007.54 1007.56 1007.55 1007.48 1007.31 1007.03 1006.63 1006.12 1005.52 1004.86 1004.19 1003.53 1002.93 1002.41 1001.99 1001.68 1001.50 1001.44 1001.53 1001.77 1002.17 1002.73 1003.46 1004.33 1005.33 1006.40 1007.51 1008.61 1009.66 1010.62 1011.49 1012.26 1012.92 1013.51 1014.05 1014.53 1014.98 1015.40
1006.46 1006.64 1006.78 1006.87 1006.92 1006.93 1006.90 1006.84 1006.73 1006.56 1006.31 1006.00 1005.60 1005.14 1004.62 1004.07 1003.52 1002.98 1002.47 1002.02 1001.65 1001.36 1001.18 1001.12 1001.20 1001.43 1001.83 1002.41 1003.14 1004.02 1005.03 1006.10 1007.21 1008.30 1009.34 1010.30 1011.17 1011.94 1012.62 1013.22 1013.77 1014.27 1014.73 1015.15
1005.87 1006.07 1006.22 1006.33 1006.39 1006.39 1006.34 1006.22 1006.05 1005.81 1005.52 1005.17 1004.76 1004.32 1003.85 1003.37 1002.89 1002.42 1001.98 1001.59 1001.26 1001.01 1000.85 1000.81 1000.91 1001.17 1001.59 1002.18 1002.94 1003.83 1004.83 1005.89 1006.98 1008.04 1009.06 1009.99 1010.84 1011.60 1012.28 1012.90 1013.46 1013.97 1014.44 1014.86
1005.43 1005.60 1005.76 1005.89 1005.96 1005.97 1005.92 1005.78 1005.58 1005.30 1004.97 1004.58 1004.15 1003.70 1003.24 1002.78 1002.33 1001.90 1001.50 1001.15 1000.86 1000.64 1000.52 1000.53 1000.67 1000.97 1001.43 1002.06 1002.83 1003.73 1004.71 1005.75 1006.79 1007.82 1008.78 1009.68 1010.50 1011.25 1011.93 1012.54 1013.11 1013.64 1014.11 1014.54
1005.20 1005.34 1005.48 1005.61 1005.70 1005.73 1005.68 1005.55 1005.34 1005.04 1004.67 1004.25 1003.78 1003.30 1002.81 1002.33 1001.87 1001.44 1001.05 1000.72 1000.46 1000.29 1000.22 1000.28 1000.48 1000.83 1001.34 1002.00 1002.79 1003.68 1004.64 1005.64 1006.64 1007.61 1008.52 1009.38 1010.17 1010.89 1011.56 1012.18 1012.75 1013.27 1013.75 1014.18
1005.20 1005.29 1005.41 1005.53 1005.63 1005.67 1005.64 1005.52 1005.30 1004.99 1004.60 1004.14 1003.63 1003.10 1002.57 1002.04 1001.55 1001.09 1000.70 1000.37 1000.13 999.99 999.97 1000.08 1000.34 1000.75 1001.30 1001.99 1002.78 1003.66 1004.60 1005.55 1006.50 1007.41 1008.27 1009.08 1009.83 1010.53 1011.18 1011.80 1012.37 1012.90 1013.38 1013.80
1005.39 1005.42 1005.51 1005.62 1005.71 1005.77 1005.75 1005.64 1005.43 1005.12 1004.71 1004.22 1003.68 1003.10 1002.51 1001.94 1001.39 1000.91 1000.49 1000.16 999.93 999.81 999.83 999.99 1000.29 1000.74 1001.32 1002.02 1002.82 1003.68 1004.58 1005.48 1006.37 1007.22 1008.03 1008.80 1009.51 1010.19 1010.83 1011.43 1012.00 1012.52 1012.99 1013.41
1005.69 1005.68 1005.73 1005.82 1005.90 1005.96 1005.95 1005.86 1005.66 1005.35 1004.94 1004.44 1003.88 1003.27 1002.64 1002.02 1001.45 1000.92 1000.48 1000.14 999.91 999.81 999.85 1000.04 1000.37 1000.83 1001.42 1002.12 1002.90 1003.73 1004.58 1005.43 1006.26 1007.07 1007.83 1008.55 1009.24 1009.89 1010.51 1011.11 1011.66 1012.17 1012.63 1013.04
1006.02 1005.98 1006.00 1006.05 1006.13 1006.18 1006.18 1006.10 1005.92 1005.64 1005.25 1004.76 1004.19 1003.58 1002.94 1002.31 1001.71 1001.17 1000.71 1000.36 1000.13 1000.03 1000.08 1000.27 1000.60 1001.06 1001.63 1002.30 1003.04 1003.82 1004.63 1005.42 1006.20 1006.96 1007.68 1008.36 1009.02 1009.65 1010.26 1010.83 1011.37 1011.86 1012.31 1012.70
1006.33 1006.26 1006.25 1006.28 1006.34 1006.38 1006.39 1006.33 1006.18 1005.93 1005.57 1005.12 1004.59 1004.00 1003.38 1002.76 1002.17 1001.63 1001.18 1000.82 1000.59 1000.48 1000.52 1000.70 1001.00 1001.43 1001.97 1002.59 1003.27 1003.99 1004.73 1005.47 1006.20 1006.91 1007.59 1008.24 1008.87 1009.48 1010.06 1010.61 1011.13 1011.60 1012.03 1012.41
1006.59 1006.51 1006.47 1006.48 1006.52 1006.55 1006.56 1006.52 1006.40 1006.19 1005.89 1005.50 1005.02 1004.49 1003.92 1003.34 1002.78 1002.28 1001.84 1001.50 1001.26 1001.15 1001.16 1001.31 1001.57 1001.95 1002.42 1002.97 1003.58 1004.24 1004.91 1005.58 1006.26 1006.91 1007.55 1008.18 1008.78 1009.35 1009.91 1010.43 1010.92 1011.38 1011.79 1012.16
1006.82 1006.74 1006.69 1006.68 1006.69 1006.71 1006.72 1006.70 1006.61 1006.44 1006.20 1005.87 1005.47 1005.01 1004.51 1004.00 1003.50 1003.04 1002.64 1002.32 1002.09 1001.97 1001.96 1002.06 1002.27 1002.58 1002.98 1003.44 1003.97 1004.54 1005.13 1005.74 1006.35 1006.95 1007.55 1008.14 1008.70 1009.25 1009.77 1010.27 1010.73 1011.16 1011.56 1011.92
Thickness
5741 5729 5724 5731 5736 5737 5735 5729 5727 5736 5748 5743 5738 5740 5748 5754 5755 5753 5752 5753 5752 5752 5755 5756 5756 5755 5752 5749 5746 5744 5741 5739 5736 5732 5729 5726 5724 5724 5723 5723 5722 5720 5719 5718
5724 5722 5736 5740 5739 5736 5731 5724 5724 5733 5744 5740 5733 5735 5745 5749 5749 5751 5750 5749 5749 5748 5748 5749 5750 5749 5746 5744 5741 5739 5737 5736 5733 5730 5727 5725 5723 5721 5721 5720 5720 5718 5717 5715
5720 5730 5741 5736 5732 5727 5724 5721 5724 5726 5732 5734 5729 5725 5734 5743 5746 5748 5748 5748 5747 5746 5744 5744 5745 5744 5742 5739 5737 5736 5734 5732 5731 5727 5724 5722 5719 5718 5717 5716 5716 5715 5714 5713
5721 5733 5735 5731 5728 5727 5717 5732 5731 5726 5715 5707 5717 5700 5722 5730 5735 5739 5741 5741 5741 5742 5742 5741 5740 5739 5738 5737 5735 5733 5731 5730 5728 5724 5721 5718 5716 5714 5714 5714 5714 5713 5711 5710
5719 5729 5728 5725 5730 5731 5726 5734 5728 5723 5711 5701 5705 5696 5708 5723 5725 5732 5736 5738 5739 5739 5739 5738 5737 5736 5734 5733 5731 5729 5727 5725 5724 5722 5720 5717 5714 5713 5712 5711 5710 5709 5707 5707
5724 5734 5734 5733 5739 5737 5732 5724 5714 5703 5695 5685 5698 5692 5700 5714 5724 5730 5734 5735 5735 5736 5736 5735 5734 5732 5730 5729 5727 5725 5723 5721 5720 5719 5717 5715 5713 5711 5709 5708 5706 5705 5704 5703
5713 5723 5734 5738 5728 5728 5723 5702 5682 5680 5672 5678 5697 5693 5700 5723 5731 5732 5731 5732 5732 5732 5730 5729 5728 5726 5725 5725 5723 5721 5720 5717 5716 5715 5714 5712 5711 5709 5707 5706 5704 5703 5701 5700
5694 5699 5724 5732 5727 5717 5713 5704 5681 5671 5668 5676 5690 5688 5708 5727 5732 5732 5731 5729 5728 5727 5726 5726 5725 5723 5722 5721 5719 5718 5716 5714 5713 5712 5711 5710 5708 5706 5705 5704 5702 5701 5699 5699
5690 5697 5725 5733 5736 5725 5707 5700 5703 5682 5676 5671 5677 5693 5710 5723 5723 5723 5722 5722 5722 5722 5722 5723 5722 5720 5718 5717 5716 5715 5714 5712 5710 5709 5707 5707 5706 5704 5703 5702 5701 5699 5698 5697
5702 5695 5714 5725 5729 5724 5718 5705 5687 5676 5664 5662 5676 5684 5693 5709 5713 5714 5714 5715 5716 5716 5716 5717 5717 5717 5715 5714 5713 5711 5710 5709 5708 5707 5705 5705 5704 5702 5701 5700 5698 5696 5695 5694
5703 5691 5699 5710 5709 5707 5703 5697 5688 5675 5674 5663 5661 5679 5710 5711 5711 5710 5711 5712 5712 5712 5712 5712 5713 5713 5712 5711 5709 5706 5706 5705 5704 5704 5703 5701 5700 5698 5698 5696 5695 5694 5692 5691
5697 5684 5680 5696 5713 5718 5712 5701 5689 5676 5670 5668 5666 5680 5714 5713 5712 5710 5710 5711 5710 5710 5709 5709 5709 5708 5707 5705 5704 5703 5703 5702 5701 5700 5699 5697 5696 5695 5693 5693 5692 5691 5689 5687
5694 5678 5668 5676 5690 5701 5701 5698 5694 5684 5670 5661 5662 5682 5708 5708 5707 5707 5707 5707 5707 5706 5705 5704 5704 5703 5703 5702 5701 5701 5700 5699 5698 5697 5695 5693 5691 5690 5689 5689 5688 5687 5686 5684
5695 5675 5671 5670 5679 5690 5691 5693 5691 5683 5668 5665 5673 5685 5697 5699 5700 5701 5702 5702 5702 5701 5700 5699 5697 5697 5697 5698 5698 5698 5696 5695 5694 5693 5691 5689 5687 5687 5686 5685 5685 5684 5682 5680
5686 5672 5676 5681 5690 5691 5690 5691 5690 5685 5681 5676 5683 5686 5694 5696 5697 5697 5697 5697 5697 5696 5695 5695 5693 5691 5692 5692 5693 5692 5691 5691 5690 5688 5686 5685 5684 5683 5683 5682 5681 5680 5679 5677
5673 5670 5673 5674 5683 5685 5683 5687 5688 5687 5685 5683 5685 5686 5694 5695 5694 5692 5692 5692 5691 5691 5691 5691 5690 5688 5688 5688 5688 5687 5686 5686 5685 5683 5682 5681 5680 5679 5679 5678 5677 5675 5674 5673
5661 5662 5660 5659 5671 5675 5667 5678 5680 5681 5683 5682 5679 5686 5689 5687 5687 5687 5687 5687 5687 5687 5687 5686 5686 5684 5684 5684 5684 5682 5682 5681 5680 5679 5678 5677 5676 5675 5674 5674 5672 5671 5669 5668
5655 5650 5645 5648 5657 5648 5666 5680 5682 5678 5676 5679 5680 5682 5684 5684 5683 5684 5684 5683 5683 5683 5683 5682 5682 5680 5680 5680 5679 5678 5677 5676 5676 5674 5674 5673 5672 5670 5670 5669 5668 5666 5665 5664
5653 5648 5639 5636 5639 5648 5662 5671 5672 5669 5668 5674 5674 5675 5675 5676 5676 5675 5679 5680 5680 5680 5679 5678 5678 5677 5675 5674 5673 5672 5671 5670 5670 5669 5669 5668 5668 5666 5665 5663 5662 5661 5660 5659
5644 5643 5636 5632 5635 5636 5654 5667 5673 5669 5659 5668 5668 5667 5668 5668 5662 5666 5673 5674 5674 5674 5673 5673 5673 5672 5669 5668 5668 5667 5665 5664 5664 5664 5664 5664 5663 5662 5660 5659 5657 5655 5655 5654
5632 5631 5629 5627 5629 5637 5650 5661 5666 5650 5653 5662 5662 5662 5661 5662 5664 5666 5668 5667 5668 5667 5667 5667 5667 5665 5664 5663 5662 5660 5659 5658 5659 5660 5660 5659 5658 5657 5656 5654 5652 5651 5650 5649
5622 5621 5620 5619 5620 5628 5646 5652 5648 5648 5655 5657 5657 5657 5656 5657 5660 5661 5661 5661 5660 5660 5660 5660 5659 5657 5657 5657 5655 5654 5653 5654 5654 5654 5654 5653 5653 5652 5651 5649 5647 5646 5645 5643
5615 5616 5617 5619 5623 5630 5636 5639 5643 5644 5646 5649 5649 5651 5652 5651 5652 5653 5654 5654 5653 5653 5652 5652 5652 5651 5650 5649 5649 5648 5648 5648 5648 5647 5647 5646 5646 5645 5645 5644 5642 5640 5639 5638
5610 5613 5613 5615 5620 5624 5628 5632 5635 5638 5639 5642 5644 5645 5646 5645 5644 5645 5645 5645 5645 5645 5645 5644 5644 5643 5643 5643 5643 5643 5642 5642 5641 5639 5639 5639 5638 5638 5637 5636 5635 5634 5632 5631
5601 5606 5606 5608 5612 5616 5622 5624 5627 5630 5633 5635 5637 5638 5638 5638 5637 5638 5639 5639 5638 5637 5637 5637 5636 5636 5635 5636 5636 5636 5636 5635 5633 5632 5632 5632 5632 5631 5630 5629 5629 5628 5627 5626
5593 5597 5599 5602 5606 5606 5610 5616 5620 5622 5624 5627 5628 5629 5630 5631 5631 5632 5632 5632 5631 5630 5629 5629 5628 5628 5628 5628 5628 5629 5629 5628 5627 5625 5625 5625 5624 5624 5623 5622 5622 5622 5621 5621